15min,AgWx,evansfrm,411,01NOV2017:00:00:00,35.1,12.94,34.5,34.6,34.0,34.6,33.4,65,66,64,0.445,23.6,24.3,23.1,3.398,3.3,166,30,5.5,0.00001,0.00003,46.7,47.7,12,0,0,34.8,5.16,0.00,0.00
15min,AgWx,evansfrm,411,01NOV2017:00:15:00,34.8,12.93,33.7,33.8,34.2,35.2,33.4,65,67,64,0.440,23.8,24.8,22.8,1.688,2.0,211,71,4.0,-0.00005,-0.00005,46.5,47.7,12,0,0,34.7,5.17,0.00,0.00
15min,AgWx,evansfrm,411,01NOV2017:00:30:00,34.6,12.92,33.8,34.0,33.6,34.0,33.4,69,70,67,0.462,24.6,25.2,24.0,1.491,1.7,355,34,3.1,-0.00008,-0.00009,46.3,47.8,12,0,0,35.3,5.16,0.00,0.00
15min,AgWx,evansfrm,411,01NOV2017:00:45:00,34.5,12.92,33.5,33.5,33.6,34.0,33.4,70,71,69,0.462,25.0,25.4,24.6,0.241,1.0,328,31,2.6,-0.00012,-0.00016,46.2,47.5,12,0,0,35.1,5.16,0.00,0.00
15min,AgWx,evansfrm,411,01NOV2017:01:00:00,34.3,12.91,33.2,33.2,33.4,33.8,33.1,72,73,71,0.463,25.3,25.5,25.2,2.061,0.8,308,46,3.8,-0.00014,-0.00019,46.0,47.5,12,0,0,35.0,5.17,0.00,0.00
15min,AgWx,evansfrm,411,01NOV2017:01:15:00,34.0,12.88,32.5,32.7,32.5,33.2,32.1,71,72,70,0.447,24.2,25.3,23.6,0,1.6,157,51,3.8,-0.00008,-0.00010,45.8,47.8,12,0,0,34.3,5.17,0.01,0.00
15min,AgWx,evansfrm,411,01NOV2017:01:30:00,33.5,12.9,31.6,31.3,32.2,32.7,31.3,71,72,70,0.420,24.0,24.6,22.9,1.666,0.9,238,79,2.5,-0.00012,-0.00017,45.8,47.5,12,0,0,34.3,5.17,0.00,0.00
15min,AgWx,evansfrm,411,01NOV2017:01:45:00,33.1,12.9,31.7,32.0,31.6,32.5,30.9,72,74,70,0.442,23.6,24.8,22.8,0.132,2.9,80,76,5.5,-0.00002,-0.00002,45.7,47.3,12,0,0,34.8,5.17,0.00,0.00
15min,AgWx,evansfrm,411,01NOV2017:02:00:00,32.6,12.86,30.3,30.4,30.7,32.1,29.7,72,74,71,0.424,22.9,24.3,21.7,3.639,1.8,128,36,5.2,-0.00007,-0.00009,45.4,47.3,12,0,0,34.5,5.17,0.00,0.00
15min,AgWx,evansfrm,411,01NOV2017:02:15:00,32.8,12.91,36.8,36.2,35.4,40.0,30.4,67,74,57,0.442,25.2,27.8,23.1,3.091,5.2,136,26,8.2,0.00007,0.00010,45.4,47.3,12,0,0,36.9,5.16,0.00,0.00
15min,AgWx,evansfrm,411,01NOV2017:02:30:00,33.2,12.9,35.9,36.1,36.9,41.1,33.7,60,67,54,0.480,24.5,27.0,22.6,1.644,2.9,192,78,6.2,0.00001,0.00004,45.2,47.3,12,0,0,36.5,5.17,0.01,0.00
15min,AgWx,evansfrm,411,01NOV2017:02:45:00,33.4,12.9,37.2,37.3,36.2,39.1,34.0,64,70,58,0.478,25.3,28.3,24.1,1.469,2.4,353,85,5.6,-0.00002,-0.00002,45.1,46.9,12,0,0,35.8,5.16,0.00,0.00
15min,AgWx,evansfrm,411,01NOV2017:03:00:00,34.2,12.9,46.0,46.1,41.6,46.6,37.7,52,63,43,0.454,25.2,26.6,24.4,7.037,4.1,165,44,9.0,0.00012,0.00017,44.9,47.3,12,0,0,40.1,5.14,0.00,0.00
15min,AgWx,evansfrm,411,01NOV2017:03:15:00,36.5,12.89,47.2,47.0,47.0,48.0,46.1,42,43,40,0.450,24.9,25.2,24.6,3.508,7.0,174,8.6,10.8,0.00035,0.00045,44.7,46.9,12,0,0,45.6,5.15,0.01,0.00
15min,AgWx,evansfrm,411,01NOV2017:03:30:00,37.0,12.89,35.5,35.4,38.0,47.0,35.4,60,66,41,0.461,25.1,25.5,24.6,5.459,2.7,340,34,6.3,0.00001,0.00003,44.7,46.9,12,0,0,36.6,5.17,0.02,0.00
15min,AgWx,evansfrm,411,01NOV2017:03:45:00,36.6,12.89,34.2,34.2,34.5,35.3,33.7,68,70,66,0.466,25.1,25.4,24.6,1.469,2.6,345,48,5.3,-0.00003,-0.00002,44.7,46.8,12,0,0,34.6,5.17,0.00,0.00
15min,AgWx,evansfrm,411,01NOV2017:04:00:00,36.2,12.88,39.1,39.7,35.9,39.8,33.6,67,70,57,0.476,26.1,29.3,24.6,5.787,3.8,47,80,10.4,0.00002,0.00004,44.5,46.8,12,0,0,36.1,5.16,0.00,0.00
15min,AgWx,evansfrm,411,01NOV2017:04:15:00,36.9,12.88,47.0,47.2,43.2,48.0,38.6,50,59,41,0.456,25.5,26.4,24.9,5.831,5.6,128,18,8.7,0.00021,0.00028,44.4,46.6,12,0,0,42.6,5.14,0.00,0.00
15min,AgWx,evansfrm,411,01NOV2017:04:30:00,39.0,12.89,48.6,48.6,48.3,49.0,46.7,40,42,40,0.466,25.3,25.6,24.9,9.43,7.7,153,9.9,10.9,0.00039,0.00050,44.3,46.6,12,0,0,47.2,5.15,0.01,0.00
15min,AgWx,evansfrm,411,01NOV2017:04:45:00,40.7,12.88,49.1,49.0,48.4,49.4,47.8,40,41,39,0.460,25.3,25.5,25.0,7.388,7.7,164,13,12.5,0.00040,0.00051,44.3,46.2,12,0,0,47.4,5.15,0.00,0.00
15min,AgWx,evansfrm,411,01NOV2017:05:00:00,42.5,12.88,50.8,50.7,50.3,51.2,48.5,37,40,36,0.460,25.0,25.2,24.7,10.17,10.7,177,9.4,15.4,0.00055,0.00067,44.2,46.6,12,0,0,49.2,5.15,0.00,0.00
15min,AgWx,evansfrm,411,01NOV2017:05:15:00,43.9,12.88,50.8,50.5,50.6,51.5,49.4,37,38,36,0.461,25.1,25.3,24.8,10.17,10.5,178,10,16.1,0.00055,0.00068,44.2,46.4,12,0,0,49.5,5.15,0.00,0.00
15min,AgWx,evansfrm,411,01NOV2017:05:30:00,45.0,12.87,51.0,50.9,51.0,51.6,50.2,36,37,35,0.461,25.2,25.5,24.9,8.72,10.5,182,10,14.9,0.00056,0.00069,44.1,46.4,12,0,0,49.8,5.15,0.00,0.00
15min,AgWx,evansfrm,411,01NOV2017:05:45:00,46.0,12.87,51.5,51.4,51.1,51.6,50.5,36,37,36,0.465,25.2,25.5,25.0,8.77,10.3,190,11,15.5,0.00056,0.00069,44.1,46.4,12,0,0,49.9,5.15,0.00,0.00
15min,AgWx,evansfrm,411,01NOV2017:06:00:00,46.8,12.88,52.7,52.5,51.9,52.6,50.9,34,36,33,0.440,24.7,25.4,24.0,10.94,11.2,184,14,16.7,0.00062,0.00075,44.0,46.2,12,0,0,50.7,5.15,0.00,0.00
15min,AgWx,evansfrm,411,01NOV2017:06:15:00,47.5,12.87,52.1,51.6,51.8,52.7,51.1,34,35,32,0.432,24.2,24.6,23.6,15.96,10.6,188,12,16.6,0.00061,0.00074,44.0,46.2,12,0,0,50.7,5.15,0.00,0.00
15min,AgWx,evansfrm,411,01NOV2017:06:30:00,48.0,12.87,52.7,52.4,52.4,52.8,51.8,32,33,31,0.427,23.4,23.7,23.2,15.02,12.1,185,8.3,16.6,0.00068,0.00082,44.1,46.0,12,0,0,51.3,5.15,0.00,0.00
15min,AgWx,evansfrm,411,01NOV2017:06:45:00,48.6,12.87,52.9,52.7,52.4,52.9,51.8,31,32,30,0.403,22.8,23.4,22.0,9.91,12.9,183,12,18.4,0.00071,0.00085,44.1,46.0,12,0,0,51.4,5.15,0.00,0.00
15min,AgWx,evansfrm,411,01NOV2017:07:00:00,49.0,12.86,52.5,52.2,52.7,53.4,51.8,30,31,29,0.405,22.1,22.6,21.7,12.65,11.5,183,12,17.6,0.00069,0.00084,44.1,46.0,12,1,0,51.6,5.15,0.00,0.00
15min,AgWx,evansfrm,411,01NOV2017:07:15:00,49.3,12.86,53.6,53.5,52.7,53.6,52.0,29,30,28,0.388,21.5,22.2,21.0,10.92,10.2,182,13,15.4,0.00066,0.00082,44.1,45.9,12,8,0,51.6,5.15,0.00,0.00
15min,AgWx,evansfrm,411,01NOV2017:07:30:00,49.8,12.88,53.5,52.9,53.4,54.4,52.2,28,29,26,0.382,20.9,21.5,20.2,14.53,11.2,170,16,18.4,0.00120,0.00237,44.2,45.7,12,24,0,53.0,5.15,0.00,0.00
15min,AgWx,evansfrm,411,01NOV2017:07:45:00,50.4,12.9,54.6,54.5,54.0,54.6,53.0,27,29,26,0.390,21.0,21.8,20.4,14.93,10.2,168,16,17.1,0.00135,0.00248,44.2,46.0,12,40,0,54.1,5.15,0.00,0.00
15min,AgWx,evansfrm,411,01NOV2017:08:00:00,51.1,12.87,53.9,53.8,54.3,54.8,53.7,28,29,27,0.414,21.9,22.6,21.3,5.064,10.6,162,15,16.2,0.00156,0.00274,44.3,45.9,12,58,0,54.9,5.15,0.00,0.00
15min,AgWx,evansfrm,411,01NOV2017:08:15:00,51.5,13.11,54.6,54.7,53.9,54.9,52.9,29,31,27,0.404,22.4,23.0,21.3,8.22,7.6,163,20,13.8,0.00130,0.00220,44.4,45.7,12,85,0,55.8,5.14,0.00,0.00
15min,AgWx,evansfrm,411,01NOV2017:08:30:00,52.9,13.51,55.4,55.4,55.3,55.6,54.8,27,28,25,0.391,21.7,22.5,20.5,0.022,8.8,143,17,18.1,0.00168,0.00276,44.4,45.9,12,150,0,60.9,5.14,0.00,0.00
15min,AgWx,evansfrm,411,01NOV2017:08:45:00,54.1,13.52,55.4,55.2,55.2,56.0,54.7,27,29,26,0.419,22.2,23.1,21.2,6.708,6.0,151,21,11.4,0.00146,0.00226,44.5,45.9,12,169,0,62.5,5.15,0.01,0.00
15min,AgWx,evansfrm,411,01NOV2017:09:00:00,54.5,13.47,55.5,55.3,55.1,55.3,55.0,28,29,27,0.400,22.4,23.2,21.5,13.92,10.3,167,17,15.4,0.00197,0.00316,44.5,45.7,12,134,0,58.5,5.16,0.00,0.00
15min,AgWx,evansfrm,411,01NOV2017:09:15:00,54.8,13.46,55.6,55.4,55.3,55.5,55.1,27,28,26,0.403,21.6,22.4,20.9,11.79,10.8,187,13,15.0,0.00210,0.00336,44.6,45.7,12,130,0,58.2,5.16,0.00,0.00
15min,AgWx,evansfrm,411,01NOV2017:09:30:00,55.2,13.79,56.3,56.3,55.6,56.4,55.3,26,27,24,0.389,21.4,22.2,19.7,12.41,12.3,194,9.8,17.4,0.00242,0.00381,44.7,45.7,12,181,0,60.5,5.13,0.00,0.00
15min,AgWx,evansfrm,411,01NOV2017:09:45:00,56.3,13.59,56.5,56.5,56.5,56.7,56.4,26,27,25,0.397,21.8,22.7,20.8,14.4,11.2,198,11,14.4,0.00250,0.00385,44.9,45.5,12,215,0,63.5,5.15,0.02,0.00
15min,AgWx,evansfrm,411,01NOV2017:10:00:00,57.0,13.63,57.3,57.2,56.8,57.2,56.4,25,26,24,0.400,21.1,22.3,20.0,11.99,11.5,198,13,18.6,0.00256,0.00397,45.1,45.7,12,203,0,63.2,5.14,0.00,0.00
15min,AgWx,evansfrm,411,01NOV2017:10:15:00,57.6,13.64,57.3,57.1,57.0,57.4,56.7,24,26,23,0.381,21.0,21.9,19.5,11.25,12.3,198,16,17.0,0.00268,0.00417,45.2,45.5,12,204,0,62.7,5.14,0.00,0.00
15min,AgWx,evansfrm,411,01NOV2017:10:30:00,57.8,13.48,56.5,56.4,56.6,57.0,56.4,25,27,24,0.391,21.6,22.5,20.5,16.13,11.6,203,13,16.1,0.00241,0.00379,45.5,45.7,12,141,0,60.3,5.14,0.01,0.00
15min,AgWx,evansfrm,411,01NOV2017:10:45:00,57.8,13.45,56.9,56.7,56.6,56.9,56.4,25,26,24,0.389,21.2,22.1,20.3,14.86,12.4,203,9.1,18.7,0.00251,0.00397,45.7,45.1,12,143,0,59.8,5.14,0.00,0.00
15min,AgWx,evansfrm,411,01NOV2017:11:00:00,57.8,13.44,57.2,57.1,57.0,57.4,56.6,24,26,22,0.393,20.7,21.9,19.0,12.23,12.0,199,15,18.8,0.00251,0.00396,45.9,45.7,12,135,0,60.2,5.14,0.00,0.00
15min,AgWx,evansfrm,411,01NOV2017:11:15:00,58.0,13.41,57.6,57.5,57.3,57.6,57.0,24,24,22,0.375,20.5,21.3,19.1,10.24,10.9,195,11,15.9,0.00242,0.00381,46.1,45.7,12,133,0,60.6,5.14,0.00,0.00
15min,AgWx,evansfrm,411,01NOV2017:11:30:00,58.2,13.34,57.5,57.2,57.4,57.6,57.2,23,24,22,0.378,20.1,20.8,19.3,7.673,9.0,176,12,15.5,0.00203,0.00324,46.3,45.9,12,91,0,59.9,5.14,0.00,0.00
15min,AgWx,evansfrm,411,01NOV2017:11:45:00,58.1,13.29,57.3,57.2,57.2,57.5,57.0,23,24,23,0.366,20.2,21.2,19.4,8.33,7.8,178,13,11.5,0.00173,0.00280,46.4,45.7,12,65,0,59.1,5.14,0.00,0.00
15min,AgWx,evansfrm,411,01NOV2017:12:00:00,58.0,13.24,57.6,57.4,57.3,57.5,57.1,22,23,21,0.347,19.0,20.0,18.2,8.05,7.4,166,16,10.5,0.00165,0.00269,46.5,45.7,12,56,0,58.8,5.14,0.00,0.00
15min,AgWx,evansfrm,411,01NOV2017:12:15:00,58.0,13.24,57.8,57.5,57.5,57.8,57.3,22,23,21,0.351,19.0,19.8,18.2,7.234,8.4,177,21,14.5,0.00187,0.00303,46.7,45.9,12,69,0,59.4,5.14,0.00,0.00
15min,AgWx,evansfrm,411,01NOV2017:12:30:00,58.0,13.25,57.7,57.5,57.7,58.0,57.4,21,22,20,0.353,18.4,19.4,17.2,9.1,8.4,168,9.5,14.9,0.00187,0.00303,47.0,45.9,12,67,0,59.6,5.14,0.00,0.00
15min,AgWx,evansfrm,411,01NOV2017:12:45:00,58.0,13.24,57.6,57.4,57.5,57.7,57.3,22,23,21,0.361,19.2,20.3,18.1,11.66,8.5,171,12,12.7,0.00183,0.00300,47.0,46.2,12,62,0,59.4,5.14,0.00,0.00
15min,AgWx,evansfrm,411,01NOV2017:13:00:00,58.2,13.27,58.3,58.1,57.9,58.1,57.5,21,22,21,0.357,18.8,19.4,18.2,8.18,11.0,165,9.9,17.4,0.00227,0.00370,47.3,46.0,12,80,0,60.2,5.13,0.00,0.00
15min,AgWx,evansfrm,411,01NOV2017:13:15:00,58.4,13.34,58.6,58.5,58.4,58.7,58.0,22,24,22,0.382,20.2,21.5,19.0,9.93,8.5,163,13,12.1,0.00201,0.00319,47.3,46.0,12,94,0,61.3,5.13,0.00,0.00
15min,AgWx,evansfrm,411,01NOV2017:13:30:00,58.7,13.35,59.0,59.0,58.8,59.2,58.5,23,24,22,0.400,21.1,22.2,20.1,5.744,4.9,191,32,10.3,0.00148,0.00226,47.5,46.2,12,85,0,62.1,5.14,0.00,0.00
15min,AgWx,evansfrm,411,01NOV2017:13:45:00,59.0,13.37,59.5,59.3,59.2,59.5,58.9,23,24,23,0.391,21.6,22.2,20.9,2.674,5.1,188,19,8.8,0.00154,0.00235,47.5,45.9,12,88,0,62.5,5.13,0.00,0.00
15min,AgWx,evansfrm,411,01NOV2017:14:00:00,59.3,13.34,59.6,59.6,59.5,59.8,59.1,23,25,23,0.405,22.1,23.2,21.3,8.97,6.9,187,30,12.2,0.00172,0.00273,47.6,46.2,12,74,0,62.0,5.13,0.00,0.00
15min,AgWx,evansfrm,411,01NOV2017:14:15:00,59.4,13.28,59.5,59.4,59.4,59.6,59.0,23,24,22,0.406,21.7,22.4,21.0,8.37,9.5,192,16,17.7,0.00200,0.00330,47.7,46.4,12,60,0,61.1,5.14,0.00,0.00
15min,AgWx,evansfrm,411,01NOV2017:14:30:00,59.5,13.27,59.5,59.3,59.2,59.6,59.0,24,24,23,0.407,22.0,22.5,21.3,7.234,8.5,181,17,15.9,0.00183,0.00301,47.8,45.9,12,55,0,61.0,5.13,0.00,0.00
15min,AgWx,evansfrm,411,01NOV2017:14:45:00,59.7,13.72,60.6,60.6,59.7,60.6,59.1,24,25,23,0.421,23.0,24.3,21.8,13.94,8.4,169,14,15.0,0.00214,0.00333,47.9,46.4,12,134,0,65.5,5.13,0.00,0.00
15min,AgWx,evansfrm,411,01NOV2017:15:00:00,60.4,13.52,60.9,60.7,60.7,61.0,60.5,24,25,23,0.432,23.5,24.9,22.4,15.89,9.0,181,18,15.9,0.00222,0.00350,48.1,46.0,12,126,0,66.6,5.13,0.00,0.00
15min,AgWx,evansfrm,411,01NOV2017:15:15:00,60.7,13.28,60.1,59.9,60.3,60.7,59.9,25,25,23,0.440,23.9,24.7,23.1,7.212,8.9,195,24,17.2,0.00191,0.00315,48.2,46.4,12,54,0,61.6,5.13,0.00,0.00
15min,AgWx,evansfrm,411,01NOV2017:15:30:00,60.7,13.21,60.5,60.3,60.2,60.4,59.9,24,25,24,0.427,23.7,24.3,23.2,8.7,8.1,194,16,15.0,0.00187,0.00301,48.2,46.6,12,69,0,61.7,5.13,0.00,0.00
15min,AgWx,evansfrm,411,01NOV2017:15:45:00,60.6,13.21,60.3,60.1,60.3,60.6,60.0,24,25,23,0.440,23.5,24.1,22.8,3.946,7.4,198,17,13.3,0.00174,0.00282,48.4,46.6,12,62,0,61.6,5.13,0.00,0.00
15min,AgWx,evansfrm,411,01NOV2017:16:00:00,60.6,13.12,60.5,60.3,60.6,60.9,60.1,24,25,23,0.431,23.4,24.0,23.0,8.68,8.8,204,15,15.9,0.00187,0.00311,48.6,46.4,12,48,0,61.3,5.13,0.00,0.00
15min,AgWx,evansfrm,411,01NOV2017:16:15:00,60.5,13.14,60.5,60.3,60.5,61.0,60.2,24,25,23,0.442,23.8,24.3,23.1,5.678,7.5,202,16,12.1,0.00163,0.00272,48.6,46.6,12,44,0,60.9,5.13,0.00,0.00
15min,AgWx,evansfrm,411,01NOV2017:16:30:00,60.4,13.1,60.6,60.4,60.5,61.0,60.0,24,25,23,0.434,23.9,24.3,23.4,9.51,7.9,190,17,15.7,0.00161,0.00272,48.7,46.8,12,34,0,60.7,5.13,0.00,0.00
15min,AgWx,evansfrm,411,01NOV2017:16:45:00,60.3,13.04,60.1,60.0,60.6,61.1,60.0,24,25,23,0.434,23.6,24.2,23.1,7.87,7.7,197,13,12.1,0.00150,0.00261,48.8,46.8,12,26,0,60.7,5.13,0.00,0.00
15min,AgWx,evansfrm,411,01NOV2017:17:00:00,60.1,13.06,60.1,59.9,60.2,60.5,59.6,24,25,24,0.435,23.5,24.0,23.0,2.674,6.4,179,14,10.1,0.00113,0.00206,48.9,46.8,12,18,0,60.0,5.13,0.00,0.00
15min,AgWx,evansfrm,411,01NOV2017:17:15:00,59.9,13.05,60.5,60.5,60.1,60.7,59.7,24,25,23,0.435,23.6,24.3,22.9,5.612,6.2,195,20,11.3,0.00059,0.00145,48.9,46.4,12,18,0,59.9,5.13,0.00,0.00
15min,AgWx,evansfrm,411,01NOV2017:17:30:00,59.8,13.03,61.0,60.9,60.7,61.3,60.3,24,24,23,0.430,23.4,23.9,22.8,3.858,6.2,199,15,8.8,0.00083,0.00110,49.0,47.3,12,8,0,59.8,5.13,0.00,0.00
15min,AgWx,evansfrm,411,01NOV2017:17:45:00,59.6,13.02,60.3,60.5,60.0,60.9,59.0,24,25,23,0.423,23.4,23.9,22.9,4.209,4.1,181,20,6.1,0.00063,0.00087,48.9,46.9,12,1,0,58.9,5.13,0.00,0.00
15min,AgWx,evansfrm,411,01NOV2017:18:00:00,59.2,13.01,60.5,60.4,59.4,60.9,58.2,25,27,23,0.442,23.8,24.3,22.8,4.669,5.4,173,40,7.5,0.00072,0.00097,49.0,47.1,12,0,0,58.4,5.14,0.00,0.00
15min,AgWx,evansfrm,411,01NOV2017:18:15:00,58.9,13,60.5,61.2,59.5,61.4,58.1,25,27,23,0.434,23.8,24.2,23.1,4.911,4.5,157,27,8.9,0.00065,0.00089,49.0,47.3,12,0,0,58.2,5.13,0.00,0.00
15min,AgWx,evansfrm,411,01NOV2017:18:30:00,58.5,12.98,58.4,58.5,58.5,61.0,57.1,26,28,24,0.435,23.9,24.4,23.3,3.376,3.4,158,29,6.6,0.00053,0.00075,49.1,47.1,12,0,0,57.3,5.13,0.00,0.00
15min,AgWx,evansfrm,411,01NOV2017:18:45:00,58.0,12.96,58.3,58.1,59.1,60.0,58.1,26,29,25,0.477,24.2,25.9,23.6,2.74,2.5,192,61,5.4,0.00042,0.00063,49.0,46.9,12,0,0,57.2,5.14,0.00,0.00
15min,AgWx,evansfrm,411,01NOV2017:19:00:00,57.8,12.95,57.2,56.5,58.0,59.3,56.5,28,32,26,0.492,25.0,26.9,24.2,0.395,3.7,51,54,7.5,0.00054,0.00076,49.0,47.3,12,0,0,56.6,5.14,0.00,0.00
15min,AgWx,evansfrm,411,01NOV2017:19:15:00,57.4,12.94,58.6,58.4,57.2,58.4,56.2,29,32,27,0.452,25.0,26.8,24.4,7.256,3.4,35,27,8.5,0.00048,0.00069,49.0,47.3,12,0,0,55.5,5.13,0.00,0.00
15min,AgWx,evansfrm,411,01NOV2017:19:30:00,57.4,12.92,58.0,57.8,58.4,58.7,57.8,27,28,27,0.460,24.8,25.2,24.5,1.556,4.6,51,13,7.3,0.00063,0.00086,49.0,47.5,12,0,0,56.8,5.13,0.00,0.00
15min,AgWx,evansfrm,411,01NOV2017:19:45:00,57.1,12.91,56.5,56.4,57.3,58.2,56.4,29,31,27,0.482,25.6,26.4,24.7,0.46,3.0,33,19,6.2,0.00045,0.00065,49.0,47.5,12,0,0,55.6,5.14,0.00,0.00
15min,AgWx,evansfrm,411,01NOV2017:20:00:00,56.9,12.9,57.7,57.4,57.4,58.1,56.1,29,31,28,0.469,25.4,26.1,25.0,3.968,4.4,51,17,8.2,0.00058,0.00079,48.9,47.5,12,0,0,56.2,5.13,0.00,0.00
15min,AgWx,evansfrm,411,01NOV2017:20:15:00,57.0,12.89,58.9,58.6,58.3,59.1,57.2,28,29,27,0.480,25.1,26.1,24.7,0,4.7,56,13,7.4,0.00063,0.00085,48.8,47.3,12,0,0,57.2,5.13,0.00,0.00
15min,AgWx,evansfrm,411,01NOV2017:20:30:00,56.7,12.89,55.3,55.3,56.4,58.4,55.0,31,32,29,0.478,25.8,26.2,25.2,2.762,2.6,193,37,5.1,0.00039,0.00057,48.7,47.3,12,0,0,55.5,5.14,0.00,0.00
15min,AgWx,evansfrm,411,01NOV2017:20:45:00,56.2,12.87,54.2,54.2,54.9,56.4,53.6,33,36,31,0.495,26.5,27.4,25.5,3.442,2.7,147,20,4.3,0.00037,0.00054,48.7,47.3,12,0,0,54.4,5.14,0.00,0.00
15min,AgWx,evansfrm,411,01NOV2017:21:00:00,55.7,12.86,54.5,54.2,54.4,55.4,53.5,34,35,33,0.490,26.6,27.0,26.2,3.705,4.0,152,13,6.3,0.00048,0.00066,48.8,47.5,12,0,0,54.1,5.13,0.00,0.00
15min,AgWx,evansfrm,411,01NOV2017:21:15:00,55.3,12.86,55.5,55.6,54.9,55.7,53.7,33,35,31,0.476,26.5,27.1,25.8,4.516,3.0,175,18,4.8,0.00040,0.00058,48.7,47.1,12,0,0,54.2,5.13,0.00,0.00
15min,AgWx,evansfrm,411,01NOV2017:21:30:00,55.1,12.85,55.8,55.4,55.9,58.0,54.1,32,36,29,0.490,26.5,27.7,25.5,2.389,3.1,11,65,8.2,0.00043,0.00062,48.7,47.5,12,0,0,54.5,5.13,0.00,0.00
15min,AgWx,evansfrm,411,01NOV2017:21:45:00,54.8,12.84,54.5,54.2,54.7,55.4,54.0,34,35,33,0.487,26.6,27.1,26.2,3.486,3.8,49,17,7.1,0.00047,0.00065,48.7,47.7,12,0,0,52.7,5.14,0.01,0.00
15min,AgWx,evansfrm,411,01NOV2017:22:00:00,54.5,12.84,55.5,55.2,54.3,55.6,53.3,34,35,32,0.492,26.5,26.7,26.3,2.521,4.0,63,11,6.6,0.00047,0.00065,48.7,47.3,12,0,0,52.6,5.14,0.00,0.00
15min,AgWx,evansfrm,411,01NOV2017:22:15:00,54.0,12.83,53.2,53.3,52.8,55.1,50.9,37,40,33,0.499,27.2,27.7,26.5,3.223,3.0,74,17,4.2,0.00036,0.00052,48.5,47.3,12,0,0,52.1,5.14,0.00,0.00
15min,AgWx,evansfrm,411,01NOV2017:22:30:00,53.7,12.82,52.5,52.1,53.5,54.0,52.0,36,39,35,0.517,27.4,28.1,26.8,3.047,2.0,60,11,4.6,0.00028,0.00042,48.6,47.5,12,0,0,52.6,5.14,0.00,0.00
15min,AgWx,evansfrm,411,01NOV2017:22:45:00,53.2,12.82,52.0,52.2,52.4,53.0,51.9,38,39,37,0.512,27.7,28.2,27.3,0,0.4,11,16,2.8,0.00007,0.00012,48.5,47.5,12,0,0,50.9,5.14,0.00,0.00
15min,AgWx,evansfrm,411,01NOV2017:23:00:00,52.6,12.81,52.1,52.1,52.1,52.4,51.5,39,40,38,0.520,27.9,28.4,27.5,2.499,1.2,45,18,5.0,0.00017,0.00027,48.4,47.5,12,0,0,49.3,5.14,0.00,0.00
15min,AgWx,evansfrm,411,01NOV2017:23:15:00,52.1,12.8,51.2,50.4,53.1,54.4,50.0,37,41,36,0.506,27.7,28.1,26.9,3.617,3.0,69,24,5.6,0.00037,0.00052,48.4,47.5,12,0,0,50.0,5.15,0.01,0.00
15min,AgWx,evansfrm,411,01NOV2017:23:30:00,51.6,12.8,53.7,54.2,52.1,54.9,50.3,39,41,35,0.517,27.8,28.1,27.3,3.639,3.5,91,14,5.9,0.00039,0.00054,48.2,47.5,12,0,0,50.9,5.13,0.00,0.00
15min,AgWx,evansfrm,411,01NOV2017:23:45:00,51.1,12.79,50.2,50.0,51.4,53.8,49.7,40,44,36,0.524,28.1,28.9,27.5,2.938,2.3,32,35,4.6,0.00028,0.00041,48.2,47.7,12,0,0,48.2,5.15,0.02,0.00
15min,AgWx,drainfrm,410,01NOV2017:00:00:00,32.4,12.7,33.5,34.4,34.3,36.1,33.4,74,76,66,0.502,26.8,27.6,25.8,2.017,2.5,153,75,4.8,-0.00004,-0.00004,43.5,45.7,14,0,100,37.5,10.71,0.00,0.00
15min,AgWx,drainfrm,410,01NOV2017:00:15:00,32.4,12.69,31.2,31.9,33.0,34.5,31.7,74,76,72,0.442,25.7,27.4,23.9,6.204,2.7,260,37,6.4,-0.00004,-0.00004,43.5,45.5,14,0,100,36.1,10.71,0.00,0.00
15min,AgWx,drainfrm,410,01NOV2017:00:30:00,32.4,12.67,32.3,32.6,33.2,33.9,31.4,72,74,69,0.449,25.2,26.0,24.0,1.096,2.7,314,29,6.3,-0.00003,-0.00002,43.3,45.5,14,0,100,36.7,10.71,0.00,0.00
15min,AgWx,drainfrm,410,01NOV2017:00:45:00,32.2,12.68,31.7,32.3,32.4,33.0,31.7,75,79,72,0.485,25.4,26.6,24.4,1.206,1.6,256,14,5.6,-0.00008,-0.00010,43.3,45.3,14,0,100,36.3,10.71,0.00,0.00
15min,AgWx,drainfrm,410,01NOV2017:01:00:00,32.0,12.67,31.8,32.5,32.4,32.8,32.0,78,80,76,0.500,26.3,27.1,25.4,1.074,0.6,333,59,1.8,-0.00014,-0.00021,43.3,45.7,14,0,100,35.7,10.71,0.00,0.00
15min,AgWx,drainfrm,410,01NOV2017:01:15:00,31.7,12.67,31.1,31.9,32.0,33.2,30.8,79,82,76,0.497,26.2,27.3,24.5,1.578,1.6,350,36,3.1,-0.00009,-0.00012,43.2,45.7,14,0,100,35.2,10.71,0.00,0.00
15min,AgWx,drainfrm,410,01NOV2017:01:30:00,31.2,12.67,29.2,30.0,31.4,32.5,29.7,83,87,81,0.487,26.8,27.4,25.8,3.99,2.2,26,52,4.0,-0.00007,-0.00009,43.1,45.5,14,0,100,34.3,10.71,0.00,0.00
15min,AgWx,drainfrm,410,01NOV2017:01:45:00,30.7,12.66,30.4,31.2,30.4,31.2,29.6,87,88,85,0.502,26.9,27.5,26.1,3.003,3.3,92,11,4.4,-0.00005,-0.00006,43.2,45.5,14,0,100,32.7,10.72,0.00,0.00
15min,AgWx,drainfrm,410,01NOV2017:02:00:00,30.3,12.66,31.0,31.4,31.1,31.7,30.6,83,85,81,0.484,26.5,27.3,25.5,3.135,2.5,103,12,4.0,-0.00007,-0.00008,43.1,45.5,14,0,100,33.2,10.72,0.00,0.00
15min,AgWx,drainfrm,410,01NOV2017:02:15:00,30.0,12.65,30.4,31.6,31.4,32.1,30.5,80,82,79,0.475,25.9,26.7,25.1,2.499,2.9,105,17,4.4,-0.00005,-0.00005,43.1,45.5,14,0,100,33.9,10.71,0.00,0.00
15min,AgWx,drainfrm,410,01NOV2017:02:30:00,29.5,12.65,31.2,31.1,30.6,31.8,28.3,81,85,75,0.487,25.3,26.7,22.0,2.302,2.1,61,59,3.4,-0.00007,-0.00008,43.0,45.5,14,0,100,33.8,10.71,0.00,0.00
15min,AgWx,drainfrm,410,01NOV2017:02:45:00,29.4,12.64,32.7,33.1,32.9,35.0,28.9,75,83,69,0.479,25.6,27.0,22.2,3.157,3.0,358,42,7.1,-0.00003,-0.00002,42.9,45.3,14,0,100,35.1,10.72,0.00,0.00
15min,AgWx,drainfrm,410,01NOV2017:03:00:00,29.3,12.63,28.3,29.1,30.6,33.1,28.9,80,83,74,0.451,25.1,26.2,24.1,0.614,3.0,15,21,4.4,-0.00004,-0.00004,42.9,45.5,14,0,100,33.3,10.71,0.00,0.00
15min,AgWx,drainfrm,410,01NOV2017:03:15:00,28.8,12.63,27.7,28.4,28.5,29.4,26.8,83,85,79,0.418,24.0,24.6,21.7,6.138,2.4,311,26,6.8,-0.00007,-0.00008,42.9,45.7,14,0,100,31.2,10.72,0.00,0.00
15min,AgWx,drainfrm,410,01NOV2017:03:30:00,28.4,12.63,29.6,30.1,29.4,30.8,27.9,84,88,79,0.475,25.1,26.6,22.8,0,2.7,284,19,5.9,-0.00006,-0.00006,42.8,45.5,14,0,100,32.2,10.71,0.00,0.00
15min,AgWx,drainfrm,410,01NOV2017:03:45:00,28.2,12.61,28.2,28.8,28.8,30.7,26.9,87,91,83,0.485,25.3,26.4,23.8,3.727,2.6,131,24,5.5,-0.00007,-0.00008,42.8,45.5,14,0,100,31.9,10.71,0.00,0.00
15min,AgWx,drainfrm,410,01NOV2017:04:00:00,28.2,12.61,29.3,29.8,29.4,30.0,28.7,88,90,86,0.493,26.2,27.3,25.3,1.622,4.3,123,26,7.0,-0.00004,-0.00004,42.6,45.5,14,0,100,32.2,10.71,0.00,0.00
15min,AgWx,drainfrm,410,01NOV2017:04:15:00,28.3,12.61,31.3,31.9,30.4,31.9,28.9,84,88,81,0.494,26.2,26.9,25.0,2.039,1.9,26,72,4.5,-0.00009,-0.00011,42.7,45.5,14,0,100,33.1,10.71,0.00,0.00
15min,AgWx,drainfrm,410,01NOV2017:04:30:00,28.6,12.61,31.6,32.5,32.4,33.8,30.3,78,81,73,0.457,26.2,26.9,24.2,3.091,3.7,11,57,6.4,-0.00002,-0.00001,42.5,45.5,14,0,100,34.7,10.71,0.00,0.00
15min,AgWx,drainfrm,410,01NOV2017:04:45:00,28.9,12.6,31.3,32.6,31.6,32.7,29.6,79,82,74,0.495,25.7,26.9,23.7,5.722,3.2,12,58,5.7,-0.00003,-0.00003,42.5,45.3,14,0,100,34.5,10.71,0.00,0.00
15min,AgWx,drainfrm,410,01NOV2017:05:00:00,29.3,12.59,32.9,33.9,33.4,34.8,32.2,76,79,72,0.504,26.8,27.8,25.7,3.573,3.1,23,38,6.1,-0.00003,-0.00002,42.5,45.1,14,0,100,35.7,10.71,0.00,0.00
15min,AgWx,drainfrm,410,01NOV2017:05:15:00,29.6,12.58,32.6,33.4,33.4,34.0,33.0,77,78,76,0.500,27.1,27.5,26.5,3.31,2.9,25,35,4.0,-0.00004,-0.00004,42.5,45.5,14,0,100,35.6,10.71,0.00,0.00
15min,AgWx,drainfrm,410,01NOV2017:05:30:00,29.8,12.58,31.6,31.9,32.0,33.3,31.3,81,83,76,0.494,26.7,27.5,25.4,6.204,3.9,34,31,6.8,-0.00002,-0.00002,42.4,45.3,14,0,100,34.7,10.71,0.00,0.00
15min,AgWx,drainfrm,410,01NOV2017:05:45:00,30.1,12.57,33.4,34.1,32.9,34.5,31.1,80,83,78,0.517,27.6,28.4,26.1,4.297,5.1,26,21,7.0,0.00000,0.00001,42.3,45.5,14,0,100,35.3,10.71,0.00,0.00
15min,AgWx,drainfrm,410,01NOV2017:06:00:00,30.5,12.57,33.0,33.8,33.5,34.2,32.7,80,81,77,0.526,27.9,28.4,27.0,4.998,3.6,14,45,6.4,-0.00003,-0.00002,42.3,45.3,14,0,100,35.7,10.71,0.00,0.00
15min,AgWx,drainfrm,410,01NOV2017:06:15:00,30.8,12.55,34.1,34.6,34.5,34.9,33.6,78,80,77,0.532,28.5,29.0,27.5,3.113,2.8,37,43,6.1,-0.00005,-0.00005,42.3,45.1,14,0,100,36.4,10.71,0.00,0.00
15min,AgWx,drainfrm,410,01NOV2017:06:30:00,31.1,12.55,33.9,34.4,35.0,36.3,34.0,78,79,74,0.532,28.7,29.4,27.8,1.293,3.3,0.2,35,6.3,-0.00003,-0.00002,42.1,45.1,14,0,100,37.0,10.71,0.00,0.00
15min,AgWx,drainfrm,410,01NOV2017:06:45:00,31.3,12.54,34.6,35.5,34.5,35.5,33.4,79,81,76,0.536,28.6,29.0,27.6,4.494,2.6,27,54,4.5,-0.00006,-0.00006,42.1,45.0,14,0,100,36.8,10.70,0.00,0.00
15min,AgWx,drainfrm,410,01NOV2017:07:00:00,31.8,12.52,35.0,35.7,36.1,36.9,35.1,75,77,73,0.536,28.8,29.4,28.1,4.911,5.7,20,16,7.7,0.00004,0.00007,42.2,45.0,14,1,100,38.1,10.71,0.00,0.00
15min,AgWx,drainfrm,410,01NOV2017:07:15:00,32.2,12.52,35.4,36.2,35.2,36.2,34.4,77,79,75,0.542,28.7,29.2,28.0,4.297,4.3,10,29,6.7,0.00001,0.00002,42.1,45.0,14,8,100,37.7,10.70,0.00,0.00
15min,AgWx,drainfrm,410,01NOV2017:07:30:00,32.9,12.51,37.6,37.9,36.7,37.9,35.7,75,77,71,0.548,29.4,29.9,28.7,5.524,5.0,16,35,7.1,-0.00006,0.00008,42.1,45.0,14,24,100,39.4,10.70,0.00,0.00
15min,AgWx,drainfrm,410,01NOV2017:07:45:00,34.1,12.51,37.7,38.5,38.7,39.5,38.0,70,72,67,0.567,29.8,30.2,29.3,0.877,2.9,19,51,6.6,0.00006,0.00018,42.1,44.8,14,38,100,41.8,10.70,0.00,0.00
15min,AgWx,drainfrm,410,01NOV2017:08:00:00,35.1,12.51,37.7,38.4,38.6,39.0,38.2,71,74,69,0.580,30.0,30.7,29.4,4.845,4.0,12,42,6.2,0.00024,0.00040,42.0,44.8,14,58,100,42.6,10.70,0.00,0.00